User: anonymous   Login
Location: Unspecified
(0.0000°N, 0.0000°E)
Time: 16:29:48
(UTC+00:00)
Language:

GSAT 7 - Orbit

View from above orbital plane
View from above orbital plane
View from above satellite
View from above satellite

Ground track
Ground track

The orbit data is extracted from the following two-line orbital elements,

1 39234U 13044B   17147.11424366 -.00000089 +00000-0 +00000-0 0  9998
2 39234 000.0372 265.6072 0001503 035.9994 058.3832 01.00271450012182
Epoch (UTC): 27 May 2017 02:44:30
Eccentricity: 0.0001503
inclination: 0.0372°
perigee height: 35780 km
apogee height: 35792 km
right ascension of ascending node: 265.6072°
argument of perigee: 35.9994°
revolutions per day: 1.00271450
mean anomaly at epoch: 58.3832°
orbit number at epoch: 1218

The dashed part of the orbit path shows where the satellite is in the earth's shadow,  

DLR